Terminal Aerodrome Forecast
Issued by NWS Fort Wayne, IN

Home | Current Version | Previous Version | Text Only | Print | Product List | Glossary On
Versions: 1 2 3 4 5 6 7 8 9 10 11 12 13 14 15 16 17 18
000
FTUS43 KIWX 181800 CCA
TAFFWA
TAF COR
KFWA 181830Z 1818/1918 06008KT P6SM SCT060 BKN100
     FM190000 07012KT P6SM BKN060
     FM191600 09015KT 5SM -SHRA BR OVC010=

USA.gov is the U.S. government's official web portal to all federal, state and local government web resources and services.